N1WTL Weather Reports


Display with metric or nautical units.
time (UTC)temp
F
wind
direction
speed
MPH
gust
MPH
rain 1hr
in
rain 24hr
in
rain mn
in
humidity
%
barometer
mb
20260507191528 56 31 2.0 7.0 0.00 0.00 0.00 41 1001.4
20260507190020 55 347 3.0 15.0 0.00 0.01 0.00 39 1001.3
20260507184525 55 210 1.0 8.0 0.00 0.01 0.00 42 1001.3
20260507183027 55 58 1.0 10.0 0.00 0.01 0.00 41 1001.3
20260507181528 55 256 1.0 13.0 0.00 0.01 0.00 44 1001.3
20260507180028 54 171 3.0 12.0 0.00 0.01 0.00 44 1001.6
20260507174540 54 239 1.0 10.0 0.00 0.01 0.00 44 1001.6
20260507173027 54 198 3.0 11.0 0.00 0.01 0.00 46 1001.6
20260507171508 53 93 1.0 6.0 0.00 0.01 0.00 53 1001.5
20260507170015 53 67 1.0 9.0 0.00 0.01 0.00 52 1001.7
20260507164521 52 353 2.0 12.0 0.00 0.01 0.00 57 1002.2
20260507163026 51 190 1.0 5.0 0.00 0.01 0.00 77 1002.6
20260507161527 47 212 0.0 3.0 0.00 0.01 0.00 79 1002.9
20260507160013 46 70 0.0 2.0 0.00 0.01 0.00 83 1003.0
20260507154520 45 86 0.0 2.0 0.00 0.01 0.00 86 1003.2
20260507153025 46 193 0.0 5.0 0.00 0.01 0.00 80 1003.4
20260507151524 47 21 0.0 6.0 0.00 0.01 0.00 74 1003.1
20260507150026 47 191 3.0 7.0 0.00 0.01 0.00 69 1003.1
20260507144510 48 355 0.0 3.0 0.00 0.01 0.00 70 1002.9
20260507143018 49 240 1.0 7.0 0.00 0.01 0.00 67 1002.9
20260507141524 49 77 2.0 6.0 0.00 0.01 0.00 72 1003.0
20260507140036 47 37 0.0 4.0 0.00 0.01 0.00 77 1003.1
20260507134529 47 205 0.0 5.0 0.00 0.01 0.00 75 1003.0
20260507133013 47 5 1.0 5.0 0.00 0.01 0.00 77 1003.1
20260507131533 46 217 0.0 2.0 0.00 0.01 0.00 81 1003.5
20260507130026 46 248 0.0 1.0 0.00 0.01 0.00 80 1003.5
20260507124530 45 247 0.0 1.0 0.00 0.01 0.00 86 1003.4
20260507123040 45 244 0.0 1.0 0.00 0.01 0.00 85 1003.3
20260507121513 44 245 0.0 1.0 0.00 0.01 0.00 85 1003.3
20260507120029 43 221 0.0 1.0 0.00 0.01 0.00 87 1003.3
20260507114526 43 206 0.0 1.0 0.00 0.01 0.00 91 1003.3
20260507113058 41 207 0.0 1.0 0.00 0.01 0.00 94 1003.5
20260507111532 40 206 0.0 0.0 0.00 0.01 0.00 94 1003.6
20260507110016 39 206 0.0 0.0 0.00 0.01 0.00 94 1003.8
20260507104520 39 206 0.0 0.0 0.00 0.01 0.00 94 1003.5
20260507103024 39 204 0.0 0.0 0.00 0.01 0.00 94 1003.5
20260507101527 39 204 0.0 0.0 0.00 0.01 0.00 94 1003.3
20260507100041 39 204 0.0 0.0 0.00 0.01 0.00 94 1003.2
20260507094528 39 204 0.0 0.0 0.00 0.01 0.00 94 1003.2
20260507093028 39 204 0.0 0.0 0.00 0.01 0.00 94 1003.3
20260507091529 39 204 0.0 0.0 0.00 0.01 0.00 94 1003.2
20260507090028 39 204 0.0 0.0 0.00 0.01 0.00 94 1003.4
20260507084546 39 204 0.0 0.0 0.00 0.01 0.00 93 1003.2
20260507083028 39 204 0.0 0.0 0.00 0.01 0.00 93 1003.1
20260507081522 40 204 0.0 0.0 0.00 0.01 0.00 93 1003.0
20260507080028 40 204 0.0 0.0 0.00 0.01 0.00 93 1002.9
20260507074530 40 204 0.0 0.0 0.00 0.01 0.00 94 1003.1
20260507073030 40 204 0.0 0.0 0.00 0.01 0.00 93 1003.5
20260507071535 40 204 0.0 0.0 0.00 0.01 0.00 93 1003.2
20260507070026 40 204 0.0 0.0 0.00 0.01 0.00 91 1002.9
20260507064530 41 204 0.0 0.0 0.00 0.01 0.00 91 1003.2
20260507063030 41 204 0.0 2.0 0.00 0.01 0.00 91 1003.4
20260507061535 41 219 0.0 2.0 0.00 0.01 0.00 91 1002.8
20260507060037 41 37 0.0 1.0 0.00 0.01 0.00 91 1003.0
20260507054535 42 37 0.0 1.0 0.00 0.01 0.00 91 1003.0
20260507053007 42 32 0.0 2.0 0.00 0.01 0.00 91 1002.9
20260507051512 42 354 0.0 4.0 0.00 0.01 0.00 90 1002.9
20260507050036 43 27 0.0 1.0 0.00 0.01 0.00 90 1002.9
20260507044525 43 221 0.0 5.0 0.00 0.01 0.00 90 1003.1
20260507043024 43 191 0.0 2.0 0.00 0.01 0.00 91 1003.0
20260507041527 43 59 0.0 1.0 0.00 0.01 0.00 90 1003.1
20260507040014 43 40 0.0 2.0 0.00 0.01 0.00 91 1003.0
20260507034522 44 3 0.0 1.0 0.00 0.01 0.01 91 1003.5
20260507033030 44 11 0.0 3.0 0.00 0.01 0.01 91 1003.6
20260507031532 44 39 0.0 2.0 0.00 0.01 0.01 90 1003.6
20260507030034 44 15 0.0 2.0 0.00 0.01 0.01 91 1003.4
20260507024518 45 208 1.0 3.0 0.00 0.01 0.01 91 1003.6
20260507023020 45 174 0.0 0.0 0.00 0.01 0.01 93 1003.1
20260507021543 45 174 0.0 1.0 0.00 0.01 0.01 92 1003.1
20260507020030 46 2 0.0 2.0 0.00 0.01 0.01 92 1003.0
20260507014528 46 352 0.0 1.0 0.00 0.01 0.01 92 1003.1
20260507013016 46 231 0.0 1.0 0.00 0.01 0.01 93 1002.8
20260507011528 47 58 0.0 1.0 0.00 0.01 0.01 93 1002.6
20260507010037 47 197 0.0 1.0 0.00 0.01 0.01 93 1002.7
20260507004527 48 274 0.0 1.0 0.00 0.01 0.01 93 1002.5
20260507003027 48 269 0.0 1.0 0.00 0.01 0.01 93 1002.3
20260507001519 48 342 0.0 1.0 0.00 0.01 0.01 93 1002.1
20260507000032 48 1 0.0 1.0 0.00 0.01 0.01 93 1002.0
20260506234528 48 274 0.0 0.0 0.00 0.01 0.01 93 1001.8
20260506233027 49 274 0.0 1.0 0.00 0.01 0.01 92 1001.8
20260506231528 49 274 0.0 1.0 0.00 0.01 0.01 92 1001.7
20260506230020 50 75 0.0 2.0 0.00 0.01 0.01 92 1001.5
20260506224524 50 248 2.0 6.0 0.00 0.01 0.01 91 1001.1
20260506223028 51 231 2.0 9.0 0.00 0.01 0.01 88 1001.0
20260506221530 53 247 1.0 5.0 0.00 0.01 0.01 90 1000.5
20260506220034 56 242 2.0 3.0 0.00 0.01 0.01 88 1000.4
20260506214520 57 247 0.0 1.0 0.00 0.01 0.01 92 1000.4
20260506213030 57 247 0.0 1.0 0.00 0.01 0.01 92 1000.5
20260506211529 57 247 0.0 1.0 0.00 0.01 0.01 92 1000.5
20260506210035 57 247 0.0 0.0 0.00 0.03 0.01 91 1000.6
20260506204518 57 247 0.0 1.0 0.00 0.03 0.01 91 1000.6
20260506203027 57 247 0.0 1.0 0.00 0.03 0.01 92 1000.7
20260506201533 57 246 0.0 1.0 0.00 0.03 0.01 92 1000.7
20260506200010 57 149 0.0 1.0 0.01 0.03 0.01 93 1000.8
20260506194513 57 108 0.0 1.0 0.01 0.03 0.01 93 1001.2
20260506193020 57 200 0.0 0.0 0.01 0.03 0.01 93 1001.4